Back to Previous

Regional Weather Roundup

307 
ASUS44 KLZK 021705
RWRLZK

WEATHER ROUNDUP FOR ARKANSAS
NATIONAL WEATHER SERVICE LITTLE ROCK AR
1200 PM CDT TUE SEP 02 2014

NOTE: "FAIR" INDICATES FEW OR NO CLOUDS BELOW 12,000 FEET WITH NO
SIGNIFICANT WEATHER AND/OR OBSTRUCTIONS TO VISIBILITY.

ARZ001-003-010-029-021800-
NORTHWEST ARKANSAS
  
CITY           SKY/WX    TMP DP  RH WIND       PRES   REMARKS
FAYETTEVILLE   RAIN      66  66 100 S13       30.11F                  
FORT SMITH     LGT RAIN  70  67  90 S5        30.14R                  
HARRISON       LGT RAIN  67  65  93 SW10      30.09R                  
BENTONVILLE    CLOUDY    66  63  88 S9        30.09R                  
ROGERS         CLOUDY    66  62  87 S15       30.09R                  
HIGHFILL       TSTM      64  32  30 S12       30.08F                  
SPRINGDALE     RAIN      66  64  94 S10       30.10F                  
$$

ARZ004-005-016-021800-
NORTH CENTRAL ARKANSAS
  
CITY           SKY/WX    TMP DP  RH WIND       PRES   REMARKS
BATESVILLE     CLOUDY    75  70  83 SW9       30.05F                  
FLIPPIN        CLOUDY    70  63  78 SW15G23   30.04R                  
MTN HOME       LGT RAIN  68  65  90 VRB5G17   30.06R                  
$$

ARZ040-041-021800-
WEST CENTRAL ARKANSAS
  
CITY           SKY/WX    TMP DP  RH WIND       PRES   REMARKS
MENA           CLOUDY    70  68  94 CALM      30.15F                  
MOUNT IDA      LGT RAIN  69  67  93 NW6G17    30.17R                  
$$

ARZ009-017-025-026-028-021800-
NORTHEAST ARKANSAS
  
CITY           SKY/WX    TMP DP  RH WIND       PRES   REMARKS
CORNING          N/A     77  72  83 S16       29.97F                  
JONESBORO      CLOUDY    80  69  69 SW7       30.00F                  
NEWPORT        CLOUDY    82  71  69 W9        30.04S HX  86           
WALNUT RIDGE   CLOUDY    79  68  69 SW12      29.99F                  
BLYTHEVILLE    CLOUDY    84  77  79 S12G18    29.99F HX  94           
$$

ARZ022-023-033-042-044-021800-
CENTRAL ARKANSAS
  
CITY           SKY/WX    TMP DP  RH WIND       PRES   REMARKS
LITTLE ROCK    LGT RAIN  78  70  76 NW10      30.07R                  
N LITTLE ROCK  CLOUDY    74  72  96 N7        30.07R                  
JACKSONVILLE   PTSUNNY   75  70  86 N7        30.06S                  
HOT SPRINGS    TSTM      76  69  79 N7        30.10R                  
RUSSELLVILLE   RAIN      71  69  93 W5        30.16R FOG              
CLINTON        LGT RAIN  72  70  94 W7        30.12R                  
$$

ARZ036-021800-
EAST ARKANSAS
  
CITY           SKY/WX    TMP DP  RH WIND       PRES   REMARKS
WEST MEMPHIS   PTSUNNY   85  77  77 SW9       30.02F HX  95           
$$

ARZ050-053-066-070-073-021800-
SOUTHWEST ARKANSAS
  
CITY           SKY/WX    TMP DP  RH WIND       PRES   REMARKS
ARKADELPHIA    LGT RAIN  88  76  67 SW12      30.06F HX  99           
CAMDEN         MOSUNNY   86  73  66 W5        30.06F HX  93           
TEXARKANA      MOSUNNY   88  74  63 NW7       30.08S HX  96           
EL DORADO      TSTM      83  77  82 W14       30.07S HX  92           
DE QUEEN       PTSUNNY   84  74  71 N7        30.10R HX  91           
$$

ARZ056-057-069-021800-
SOUTHEAST ARKANSAS
  
CITY           SKY/WX    TMP DP  RH WIND       PRES   REMARKS
PINE BLUFF     CLOUDY    84  74  71 W5        30.05F HX  91           
STUTTGART      CLOUDY    88  75  66 SW16      30.05F HX  97           
MONTICELLO     LGT RAIN  81  74  79 W6        30.06F HX  86           

$$




USA.gov is the U.S. government's official web portal to all federal, state and local government web resources and services.